Location: Newark
(51.5033°N, 0.1199°W)
Time: 09:43:44
(UTC+00:00)

PicSat - Pass Details

Date: 19 September 2019
Orbit: 486 x 499 km, 97.5° (Epoch: 14 October)

Event Time Altitude Azimuth Distance (km) Brightness Sun altitude
Exits shadow 21:51:56 20° 333° (NNW) 1,221 ? -31.2°
Drops below altitude 10° 21:53:10 10° 339° (NNW) 1,715 ? -31.3°
Sets 21:55:17 0° 344° (NNW) 2,605 ? -31.5°
